Hourly Weather Lugovoy

Today, 15 May, Saturday

Time Temperature Precipitation Wind Pressure Humidity
00:00 +19°C° 0 mm 3 mps 759 mmHg 57%
01:00 +19°C° 0 mm 3 mps 759 mmHg 56%
02:00 +18°C° 0 mm 3 mps 759 mmHg 55%
03:00 +18°C° 0 mm 3 mps 759 mmHg 52%
04:00 +18°C° 0 mm 3 mps 759 mmHg 52%
05:00 +19°C° 0 mm 3 mps 759 mmHg 52%
06:00 +20°C° 0 mm 3 mps 759 mmHg 51%
07:00 +22°C° 0 mm 4 mps 759 mmHg 46%
08:00 +25°C° 0 mm 4 mps 759 mmHg 40%
09:00 +27°C° 0 mm 4 mps 759 mmHg 35%
10:00 +29°C° 0 mm 5 mps 759 mmHg 32%
11:00 +30°C° 0 mm 5 mps 759 mmHg 29%
12:00 +32°C° 0 mm 5 mps 759 mmHg 27%
13:00 +32°C° 0 mm 5 mps 759 mmHg 27%
14:00 +33°C° 0 mm 5 mps 758 mmHg 27%
15:00 +33°C° 0 mm 5 mps 758 mmHg 27%
16:00 +32°C° 0 mm 4 mps 758 mmHg 32%
17:00 +29°C° 0 mm 4 mps 758 mmHg 38%
18:00 +28°C° 0 mm 3 mps 758 mmHg 43%
19:00 +26°C° 0 mm 3 mps 758 mmHg 45%
20:00 +24°C° 0 mm 3 mps 758 mmHg 46%
21:00 +22°C° 0 mm 3 mps 758 mmHg 48%
22:00 +21°C° 0 mm 3 mps 758 mmHg 48%
23:00 +20°C° 0 mm 3 mps 758 mmHg 49%

Tomorrow, 16 May, Sunday

Time Temperature Precipitation Wind Pressure Humidity
00:00 +20°C° 0 mm 3 mps 757 mmHg 50%
01:00 +19°C° 0 mm 3 mps 758 mmHg 51%
02:00 +19°C° 0 mm 3 mps 758 mmHg 52%
03:00 +18°C° 0 mm 3 mps 758 mmHg 54%
04:00 +19°C° 0 mm 3 mps 758 mmHg 55%
05:00 +20°C° 0 mm 3 mps 758 mmHg 55%
06:00 +21°C° 0 mm 3 mps 758 mmHg 56%
07:00 +23°C° 0 mm 4 mps 758 mmHg 50%
08:00 +26°C° 0 mm 5 mps 758 mmHg 45%
09:00 +28°C° 0 mm 5 mps 758 mmHg 39%
10:00 +29°C° 0 mm 5 mps 758 mmHg 35%
11:00 +32°C° 0 mm 5 mps 758 mmHg 31%
12:00 +33°C° 0 mm 5 mps 757 mmHg 27%
13:00 +33°C° 0 mm 5 mps 757 mmHg 27%
14:00 +33°C° 0 mm 5 mps 757 mmHg 27%
15:00 +33°C° 0 mm 5 mps 757 mmHg 27%
16:00 +32°C° 0 mm 4 mps 757 mmHg 33%
17:00 +29°C° 0 mm 4 mps 757 mmHg 38%
18:00 +28°C° 0 mm 3 mps 756 mmHg 44%
19:00 +26°C° 0 mm 2 mps 756 mmHg 45%
20:00 +24°C° 0 mm 2 mps 757 mmHg 47%
21:00 +23°C° 0 mm 1 mps 757 mmHg 48%
22:00 +21°C° 0 mm 2 mps 757 mmHg 47%
23:00 +21°C° 0 mm 2 mps 757 mmHg 47%

Day after tomorrow, 17 May, Monday

Time Temperature Precipitation Wind Pressure Humidity
00:00 +21°C° 0 mm 2 mps 757 mmHg 46%
01:00 +21°C° 0 mm 2 mps 757 mmHg 48%
02:00 +21°C° 0 mm 2 mps 757 mmHg 49%
03:00 +20°C° 0 mm 2 mps 757 mmHg 50%
04:00 +21°C° 0 mm 2 mps 757 mmHg 53%
05:00 +21°C° 0 mm 2 mps 758 mmHg 55%
06:00 +21°C° 0 mm 2 mps 758 mmHg 57%
07:00 +24°C° 0 mm 2 mps 758 mmHg 52%
08:00 +26°C° 0 mm 3 mps 758 mmHg 46%
09:00 +28°C° 0 mm 3 mps 758 mmHg 41%
10:00 +29°C° 0 mm 3 mps 758 mmHg 38%
11:00 +30°C° 0 mm 3 mps 758 mmHg 36%
12:00 +31°C° 0 mm 3 mps 758 mmHg 33%
13:00 +33°C° 0 mm 3 mps 758 mmHg 31%
14:00 +33°C° 0 mm 3 mps 758 mmHg 29%
15:00 +32°C° 0 mm 2 mps 758 mmHg 27%
16:00 +30°C° 0.1 mm 3 mps 758 mmHg 36%
17:00 +28°C° 0.1 mm 4 mps 758 mmHg 44%
18:00 +24°C° 0.1 mm 6 mps 758 mmHg 53%
19:00 +23°C° 0 mm 5 mps 758 mmHg 52%
20:00 +23°C° 0 mm 4 mps 758 mmHg 52%
21:00 +22°C° 0 mm 3 mps 758 mmHg 51%
22:00 +22°C° 0 mm 3 mps 758 mmHg 52%
23:00 +21°C° 0 mm 2 mps 757 mmHg 53%

18 May, Tuesday

Time Temperature Precipitation Wind Pressure Humidity
00:00 +21°C° 0 mm 2 mps 757 mmHg 53%
01:00 +21°C° 0 mm 1 mps 757 mmHg 54%
02:00 +21°C° 0 mm 1 mps 757 mmHg 55%
03:00 +20°C° 0 mm 1 mps 757 mmHg 56%
04:00 +21°C° 0 mm 1 mps 757 mmHg 57%
05:00 +22°C° 0 mm 1 mps 757 mmHg 58%
06:00 +22°C° 0 mm 1 mps 757 mmHg 59%
07:00 +24°C° 0 mm 2 mps 757 mmHg 53%
08:00 +26°C° 0 mm 2 mps 757 mmHg 47%
09:00 +28°C° 0 mm 2 mps 757 mmHg 41%
10:00 +29°C° 0 mm 2 mps 757 mmHg 37%
11:00 +30°C° 0 mm 2 mps 757 mmHg 32%
12:00 +32°C° 0 mm 2 mps 757 mmHg 27%
13:00 +32°C° 0 mm 1 mps 757 mmHg 25%
14:00 +32°C° 0 mm 1 mps 757 mmHg 23%
15:00 +32°C° 0 mm 1 mps 756 mmHg 22%
16:00 +31°C° 0 mm 2 mps 756 mmHg 28%
17:00 +29°C° 0 mm 2 mps 756 mmHg 34%
18:00 +28°C° 0 mm 2 mps 756 mmHg 40%
19:00 +26°C° 0 mm 2 mps 756 mmHg 40%
20:00 +25°C° 0 mm 2 mps 756 mmHg 40%
21:00 +23°C° 0 mm 2 mps 756 mmHg 41%
22:00 +23°C° 0 mm 2 mps 756 mmHg 42%
23:00 +21°C° 0 mm 2 mps 756 mmHg 43%

19 May, Wednesday

Time Temperature Precipitation Wind Pressure Humidity
00:00 +20°C° 0 mm 2 mps 756 mmHg 45%
01:00 +20°C° 0 mm 2 mps 756 mmHg 49%
02:00 +19°C° 0 mm 2 mps 756 mmHg 53%
03:00 +19°C° 0 mm 2 mps 756 mmHg 56%
04:00 +20°C° 0 mm 2 mps 756 mmHg 58%
05:00 +21°C° 0 mm 2 mps 756 mmHg 60%
06:00 +21°C° 0 mm 2 mps 756 mmHg 61%
07:00 +24°C° 0 mm 3 mps 756 mmHg 55%
08:00 +26°C° 0 mm 3 mps 756 mmHg 49%
09:00 +28°C° 0 mm 4 mps 756 mmHg 43%
10:00 +29°C° 0 mm 4 mps 755 mmHg 40%
11:00 +30°C° 0 mm 4 mps 755 mmHg 36%
12:00 +33°C° 0 mm 5 mps 755 mmHg 33%
13:00 +33°C° 0 mm 5 mps 755 mmHg 32%
14:00 +33°C° 0 mm 5 mps 755 mmHg 31%
15:00 +33°C° 0 mm 5 mps 755 mmHg 30%
16:00 +30°C° 0 mm 4 mps 754 mmHg 34%
17:00 +29°C° 0 mm 4 mps 754 mmHg 39%
18:00 +28°C° 0 mm 3 mps 753 mmHg 44%
19:00 +26°C° 0 mm 4 mps 753 mmHg 46%
20:00 +25°C° 0 mm 4 mps 754 mmHg 49%
21:00 +22°C° 0 mm 4 mps 754 mmHg 52%
22:00 +21°C° 0.1 mm 3 mps 754 mmHg 59%
23:00 +20°C° 0.1 mm 2 mps 755 mmHg 66%

20 May, Thursday

Time Temperature Precipitation Wind Pressure Humidity
00:00 +19°C° 0.1 mm 1 mps 755 mmHg 73%
01:00 +18°C° 0 mm 2 mps 755 mmHg 74%
02:00 +19°C° 0 mm 3 mps 755 mmHg 76%
03:00 +19°C° 0 mm 4 mps 755 mmHg 77%
04:00 +19°C° 0 mm 4 mps 755 mmHg 76%
05:00 +20°C° 0 mm 4 mps 755 mmHg 75%
06:00 +20°C° 0 mm 4 mps 755 mmHg 74%
07:00 +22°C° 0 mm 4 mps 755 mmHg 67%
08:00 +25°C° 0 mm 5 mps 755 mmHg 61%
09:00 +26°C° 0 mm 5 mps 755 mmHg 54%
10:00 +28°C° 0 mm 5 mps 755 mmHg 51%
11:00 +29°C° 0 mm 5 mps 755 mmHg 47%
12:00 +30°C° 0 mm 6 mps 755 mmHg 43%
13:00 +30°C° 0 mm 5 mps 754 mmHg 43%
14:00 +30°C° 0 mm 5 mps 754 mmHg 42%
15:00 +32°C° 0 mm 4 mps 754 mmHg 41%
16:00 +29°C° 0 mm 4 mps 754 mmHg 46%
17:00 +28°C° 0 mm 3 mps 754 mmHg 51%
18:00 +27°C° 0 mm 2 mps 754 mmHg 56%
19:00 +26°C° 0 mm 2 mps 755 mmHg 59%
20:00 +24°C° 0 mm 1 mps 755 mmHg 62%
21:00 +23°C° 0 mm 1 mps 755 mmHg 66%
22:00 +22°C° 0 mm 1 mps 755 mmHg 68%
23:00 +21°C° 0 mm 1 mps 756 mmHg 70%
Show more

We Need Your Consent

Meteoprog and our Service Providers may store and access personal data such as cookies, device identifiers or other similar technologies on your device and process such data to personalise content and ads, as well as provide social media features and to analyse the traffic.

  • Store and/or access information on your device

    Cookies, device identifiers or other information can be stored or accessed on your device for the purposes indicated above.

  • Personalised ads and content, ad and content measurement, audience insights, and products development

    Ads and content can be personalised based on a profile. More data can be added to better personalise ads and content. Ad and content performance can be measured. Insights about the audience who saw the ads and content can be derived. Such data can be used to develop or improve user’s experience, systems and software.

By clicking ‘I Agree’ you will allow the use of indicated cookies, device identifiers, web beacons or other similar technologies. Your settings can be changed in the browser on your device.

For certain purposes, legitimate interests may be relied on, rather than consent. You can read more about this in our Privacy and Cookie Policy.